Home   Weather   Oklahoma City   Past weeks

Flag for USA Past Weather in Oklahoma City, Oklahoma, USA — Yesterday and Last 2 Weeks

Now
100 °F

Partly sunny.


Feels Like: 101 °F
Forecast: 75 / 100 °F
Wind: 6 mph from Southwest

Location: Will Rogers World Airport

Current Time: Jul 21, 2017 at 5:49:18 pm

Latest Report: Jul 21, 2017 at 4:52 pm


Visibility: 10 mi

Pressure: 29.85 "Hg

Humidity: 28%

Dew Point: 61 °F

Location of Oklahoma CityLocation

Past Weather in Oklahoma City — Graph

°F

Oklahoma City Temperature Yesterday

Maximum temperature yesterday: 101 °F (at 3:52 pm)
Minimum temperature yesterday: 74 °F (at 5:52 am)
Average temperature yesterday: 88 °F

High & Low Weather Summary for the Past Weeks

 TemperatureHumidityPressure
High101 °F (Jul 20, 3:52 pm)97% (Jul 10, 2:52 am)30.09 "Hg (Jul 10, 2:52 am)
Low68 °F (Jul 9, 5:52 am)26% (Jul 21, 3:52 pm)29.84 "Hg (Jul 11, 3:52 pm)
Average83 °F63%29.98 "Hg
* Reported Jul 6 3:52 pm — Jul 21 3:52 pm, Oklahoma City. Weather by CustomWeather, © 2017

Note: Actual official high and low records may vary slightly from our data, if they occured in-between our weather recording intervals... More about our weather records

Advertising

Oklahoma City Weather History for the Previous 24 Hours

Scroll right to see more
 ConditionsComfort  
Time TempWeatherWind HumidityBarometerVisibility
3:52 pm
Fri, Jul 21
101 °FPartly sunny.6 mph26%29.86 "Hg10 mi
2:52 pm101 °FScattered clouds.12 mph27%29.88 "Hg10 mi
1:52 pm99 °FPassing clouds.14 mph32%29.90 "Hg10 mi
12:52 pm97 °FPassing clouds.10 mph36%29.91 "Hg10 mi
11:52 am95 °FPassing clouds.13 mph40%29.93 "Hg10 mi
10:52 am92 °FPassing clouds.13 mph44%29.93 "Hg10 mi
9:52 am88 °FPassing clouds.13 mph52%29.94 "Hg10 mi
8:52 am83 °FPassing clouds.12 mph63%29.96 "Hg10 mi
7:52 am79 °FScattered clouds.8 mph72%29.96 "Hg10 mi
6:52 am75 °FScattered clouds.7 mph82%29.95 "Hg10 mi
5:52 am75 °FPassing clouds.7 mph82%29.94 "Hg10 mi
4:52 am76 °FPassing clouds.7 mph80%29.93 "Hg10 mi
3:52 am78 °FPassing clouds.10 mph74%29.94 "Hg10 mi
2:52 am80 °FPassing clouds.12 mph67%29.94 "Hg10 mi
1:52 am81 °FPassing clouds.9 mph65%29.95 "Hg10 mi
12:52 am82 °FClear.10 mph63%29.96 "Hg10 mi
11:52 pm
Thu, Jul 20
84 °FPassing clouds.12 mph61%29.95 "Hg10 mi
10:52 pm84 °FClear.13 mph61%29.94 "Hg10 mi
9:52 pm87 °FClear.14 mph55%29.93 "Hg10 mi
8:52 pm89 °FPassing clouds.9 mph46%29.92 "Hg10 mi
7:52 pm94 °FPassing clouds.10 mph33%29.91 "Hg10 mi
6:52 pm97 °FPassing clouds.12 mph33%29.91 "Hg10 mi
5:52 pm99 °FScattered clouds.14 mph29%29.93 "Hg10 mi
Weather by CustomWeather, © 2017

See weather overviewHow to use our weather pages